Location: Santa Maria di Sala
(45.5070°N, 12.0300°E)
Time: 21:01:58
(UTC+02:00)

BlueWalker 3 - Visible Passes

Search period start: 21 September 2023 00:00
Search period end: 01 October 2023 00:00
Orbit: 492 x 508 km, 53.2° (Epoch: 21 September)

Date Brightness Start Highest point End Pass type
(mag) Time Alt. Az. Time Alt. Az. Time Alt. Az.
21 Sep 4.3 03:55:47 22° ENE 03:55:47 22° ENE 03:57:16 10° ENE visible
21 Sep 3.1 05:30:25 22° WNW 05:32:09 33° NNW 05:35:41 10° NE visible
22 Sep 5.0 03:35:13 14° ENE 03:35:13 14° ENE 03:35:49 10° ENE visible
22 Sep 3.1 05:09:50 29° NW 05:10:41 33° NNW 05:14:13 10° NE visible
23 Sep 3.1 04:49:13 32° NNW 04:49:13 32° NNW 04:52:45 10° NE visible
23 Sep 3.6 06:25:11 10° NW 06:28:27 26° N 06:31:46 10° ENE visible
24 Sep 3.6 04:28:36 29° NNE 04:28:36 29° NNE 04:31:16 10° NE visible
24 Sep 3.7 06:03:41 10° NW 06:06:59 26° N 06:10:17 10° ENE visible
25 Sep 4.3 04:07:58 22° NNE 04:07:58 22° NNE 04:09:45 10° NE visible
25 Sep 3.7 05:42:36 12° NW 05:45:29 26° N 05:48:47 10° ENE visible
26 Sep 4.9 03:47:20 15° NE 03:47:20 15° NE 03:48:15 10° NE visible
26 Sep 3.7 05:21:58 17° NW 05:23:58 26° N 05:27:16 10° ENE visible
27 Sep 3.6 05:01:21 23° NNW 05:02:27 26° N 05:05:45 10° ENE visible
28 Sep 3.7 04:40:47 26° N 04:40:55 26° N 04:44:13 10° ENE visible
28 Sep 2.6 06:16:09 10° NW 06:19:57 55° NNE 06:23:45 10° ESE visible
29 Sep 4.1 04:20:15 24° NNE 04:20:15 24° NNE 04:22:39 10° ENE visible
29 Sep 2.5 05:54:54 12° NW 05:58:24 55° NNE 06:02:12 10° ESE visible
30 Sep 4.7 03:59:48 17° NE 03:59:48 17° NE 04:01:06 10° ENE visible
30 Sep 2.5 05:34:26 21° NW 05:36:50 55° NNE 05:40:37 10° ESE visible
